Location: Breitenfeld
(46.8500°N, 15.6333°E)
Time: 11:56:28
(UTC+00:00)

Transit 4B - Pass Details

Date: 29 May 2022
Orbit: 948 x 1097 km, 32.4° (Epoch: 01 July)

Event Time Altitude Azimuth Distance (km) Brightness Sun altitude
Exits shadow 00:21:56 14° 150° (SSE) 2,467 10.3 -18.8°
Drops below altitude 10° 00:24:15 10° 129° (SE) 2,725 10.7 -18.6°
Sets 00:28:14 0° 106° (ESE) 3,648 11.6 -18.4°
